Location: Newark
(50.0306°N, 2.3272°E)
Time: 02:17:48
(UTC+00:00)

Transit 2A Rocket - Pass Details

Date: 10 December 2019
Orbit: 593 x 910 km, 66.7° (Epoch: 28 January)

Event Time Altitude Azimuth Distance (km) Brightness Sun altitude
Rises 19:42:17 0° 294° (WNW) 2,857 8.9 -36.3°
Enters shadow 19:45:29 - 322° (NW) 2,087 7.7 -36.8°
Reaches altitude 10° 19:46:59 10° 341° (NNW) 1,936 - -37.0°
Maximum altitude 19:47:25 10° 346° (NNW) 1,928 - -37.1°
Drops below altitude 10° 19:47:52 10° 352° (N) 1,937 - -37.2°
Sets 19:52:35 0° 39° (NE) 2,862 - -37.9°
